Time,TemperatureF,DewpointF,PressureIn,WindDirection,WindDirectionDegrees,WindSpeedMPH,WindSpeedGustMPH,Humidity,HourlyPrecipIn,Conditions,Clouds,dailyrainin,SoftwareType,DateUTC
2013-01-20 00:02:00,12.0,7.0,30.31,SE,134,9.0,11.0,79,0.00,,,0.00,,2013-01-20 07:02:00,
2013-01-20 00:11:00,12.0,7.0,30.31,SE,134,9.0,11.0,79,0.00,,,0.00,,2013-01-20 07:11:00,
2013-01-20 00:22:00,14.0,9.0,30.31,SSE,167,5.0,13.0,79,0.00,,,0.00,,2013-01-20 07:22:00,
2013-01-20 00:32:00,14.0,7.0,30.30,South,172,7.0,13.0,74,0.00,,,0.00,,2013-01-20 07:32:00,
2013-01-20 00:42:00,14.0,7.0,30.30,South,172,7.0,13.0,74,0.00,,,0.00,,2013-01-20 07:42:00,
2013-01-20 00:52:00,15.0,9.0,30.30,SSE,163,7.0,12.0,78,0.00,,,0.00,,2013-01-20 07:52:00,
2013-01-20 01:01:00,16.0,9.0,30.30,SE,136,7.0,11.0,73,0.00,,,0.00,,2013-01-20 08:01:00,
2013-01-20 01:11:00,16.0,9.0,30.30,SE,136,7.0,11.0,73,0.00,,,0.00,,2013-01-20 08:11:00,
2013-01-20 01:22:00,15.0,11.0,30.30,SSE,151,8.0,13.0,82,0.00,,,0.00,,2013-01-20 08:22:00,
2013-01-20 01:32:00,17.0,10.0,30.30,SSE,147,6.0,10.0,72,0.00,,,0.00,,2013-01-20 08:32:00,
2013-01-20 01:52:00,16.0,9.0,30.30,SSE,158,3.0,13.0,73,0.00,,,0.00,,2013-01-20 08:52:00,
2013-01-20 02:02:00,15.0,8.0,30.30,SE,130,7.0,12.0,73,0.00,,,0.00,,2013-01-20 09:02:00,
2013-01-20 02:22:00,13.0,7.0,30.30,SE,126,7.0,12.0,76,0.00,,,0.00,,2013-01-20 09:22:00,
2013-01-20 02:33:00,11.0,6.0,30.30,SE,131,8.0,11.0,78,0.00,,,0.00,,2013-01-20 09:33:00,
2013-01-20 02:42:00,11.0,6.0,30.30,SE,131,8.0,11.0,78,0.00,,,0.00,,2013-01-20 09:42:00,
2013-01-20 02:52:00,12.0,7.0,30.30,South,170,7.0,10.0,81,0.00,,,0.00,,2013-01-20 09:52:00,
2013-01-20 03:02:00,14.0,8.0,30.31,ESE,121,6.0,10.0,76,0.00,,,0.00,,2013-01-20 10:02:00,
2013-01-20 03:11:00,14.0,8.0,30.31,ESE,121,6.0,10.0,76,0.00,,,0.00,,2013-01-20 10:11:00,
2013-01-20 03:22:00,15.0,8.0,30.31,SE,126,5.0,7.0,74,0.00,,,0.00,,2013-01-20 10:22:00,
2013-01-20 03:32:00,15.0,8.0,30.31,SSE,156,5.0,8.0,73,0.00,,,0.00,,2013-01-20 10:32:00,
2013-01-20 03:52:00,15.0,9.0,30.31,SSE,151,4.0,8.0,75,0.00,,,0.00,,2013-01-20 10:52:00,
2013-01-20 04:02:00,13.0,7.0,30.30,SE,127,6.0,11.0,76,0.00,,,0.00,,2013-01-20 11:02:00,
2013-01-20 04:11:00,13.0,7.0,30.30,SE,127,6.0,11.0,76,0.00,,,0.00,,2013-01-20 11:11:00,
2013-01-20 04:22:00,15.0,9.0,30.30,SE,137,6.0,8.0,75,0.00,,,0.00,,2013-01-20 11:22:00,
2013-01-20 04:32:00,14.0,8.0,30.29,SE,138,5.0,8.0,75,0.00,,,0.00,,2013-01-20 11:32:00,
2013-01-20 04:42:00,14.0,8.0,30.29,SE,138,5.0,8.0,75,0.00,,,0.00,,2013-01-20 11:42:00,
2013-01-20 04:53:00,15.0,8.0,30.29,SE,136,6.0,8.0,74,0.00,,,0.00,,2013-01-20 11:53:00,
2013-01-20 05:02:00,14.0,8.0,30.29,SE,132,6.0,7.0,76,0.00,,,0.00,,2013-01-20 12:02:00,
2013-01-20 05:22:00,15.0,8.0,30.29,SSE,155,5.0,8.0,74,0.00,,,0.00,,2013-01-20 12:22:00,
2013-01-20 05:32:00,16.0,9.0,30.29,SE,138,5.0,7.0,73,0.00,,,0.00,,2013-01-20 12:32:00,
2013-01-20 05:53:00,16.0,9.0,30.28,SSE,147,5.0,7.0,72,0.00,,,0.00,,2013-01-20 12:53:00,
2013-01-20 06:02:00,13.0,7.0,30.29,SE,138,7.0,8.0,76,0.00,,,0.00,,2013-01-20 13:02:00,
2013-01-20 06:22:00,15.0,9.0,30.29,SSE,147,5.0,8.0,75,0.00,,,0.00,,2013-01-20 13:22:00,
2013-01-20 06:32:00,16.0,9.0,30.29,SE,142,5.0,6.0,72,0.00,,,0.00,,2013-01-20 13:32:00,
2013-01-20 06:52:00,14.0,7.0,30.29,SE,142,5.0,7.0,72,0.00,,,0.00,,2013-01-20 13:52:00,
2013-01-20 07:02:00,13.0,7.0,30.29,SE,145,7.0,9.0,76,0.00,,,0.00,,2013-01-20 14:02:00,
2013-01-20 07:11:00,13.0,7.0,30.29,SE,145,7.0,9.0,76,0.00,,,0.00,,2013-01-20 14:11:00,
2013-01-20 07:22:00,15.0,8.0,30.29,SSE,150,5.0,7.0,74,0.00,,,0.00,,2013-01-20 14:22:00,
2013-01-20 07:32:00,15.0,8.0,30.29,SSE,148,5.0,7.0,72,0.00,,,0.00,,2013-01-20 14:32:00,
2013-01-20 07:53:00,13.0,7.0,30.29,SE,138,6.0,9.0,75,0.00,,,0.00,,2013-01-20 14:53:00,
2013-01-20 08:02:00,14.0,8.0,30.29,SE,143,6.0,8.0,75,0.00,,,0.00,,2013-01-20 15:02:00,
2013-01-20 08:22:00,13.0,7.0,30.29,SE,136,5.0,7.0,75,0.00,,,0.00,,2013-01-20 15:22:00,
2013-01-20 08:32:00,12.0,6.0,30.29,SE,141,5.0,8.0,77,0.00,,,0.00,,2013-01-20 15:32:00,
2013-01-20 08:42:00,12.0,6.0,30.29,SE,141,5.0,8.0,77,0.00,,,0.00,,2013-01-20 15:42:00,
2013-01-20 08:53:00,11.0,6.0,30.31,South,171,5.0,12.0,78,0.00,,,0.00,,2013-01-20 15:53:00,
2013-01-20 09:02:00,13.0,7.0,30.31,SE,139,5.0,8.0,78,0.00,,,0.00,,2013-01-20 16:02:00,
2013-01-20 09:12:00,13.0,7.0,30.31,SE,139,5.0,8.0,78,0.00,,,0.00,,2013-01-20 16:12:00,
2013-01-20 09:22:00,14.0,8.0,30.31,SSE,154,4.0,9.0,77,0.00,,,0.00,,2013-01-20 16:22:00,
2013-01-20 09:32:00,18.0,10.0,30.31,SSE,153,5.0,9.0,69,0.00,,,0.00,,2013-01-20 16:32:00,
2013-01-20 09:52:00,15.0,8.0,30.31,SE,144,4.0,7.0,73,0.00,,,0.00,,2013-01-20 16:52:00,
2013-01-20 10:02:00,17.0,10.0,30.32,SSE,165,4.0,7.0,73,0.00,,,0.00,,2013-01-20 17:02:00,
2013-01-20 10:32:00,17.0,9.0,30.33,South,182,7.0,9.0,71,0.00,,,0.00,,2013-01-20 17:32:00,
2013-01-20 10:42:00,17.0,9.0,30.33,South,182,7.0,9.0,71,0.00,,,0.00,,2013-01-20 17:42:00,
2013-01-20 10:53:00,16.0,9.0,30.33,SE,133,6.0,9.0,73,0.00,,,0.00,,2013-01-20 17:53:00,
2013-01-20 11:02:00,17.0,10.0,30.34,SE,134,6.0,8.0,73,0.00,,,0.00,,2013-01-20 18:02:00,
2013-01-20 11:12:00,18.0,10.0,30.34,SE,141,5.0,6.0,70,0.00,,,0.00,,2013-01-20 18:12:00,
2013-01-20 11:22:00,18.0,10.0,30.34,SE,141,5.0,6.0,70,0.00,,,0.00,,2013-01-20 18:22:00,
2013-01-20 11:32:00,19.0,11.0,30.34,South,179,5.0,9.0,70,0.00,,,0.00,,2013-01-20 18:32:00,
2013-01-20 11:42:00,19.0,11.0,30.34,South,179,5.0,9.0,70,0.00,,,0.00,,2013-01-20 18:42:00,
2013-01-20 11:53:00,19.0,11.0,30.33,South,170,3.0,6.0,69,0.00,,,0.00,,2013-01-20 18:53:00,
2013-01-20 12:02:00,21.0,11.0,30.32,SSE,148,3.0,6.0,66,0.00,,,0.00,,2013-01-20 19:02:00,
2013-01-20 12:12:00,21.0,11.0,30.32,SSE,148,3.0,6.0,66,0.00,,,0.00,,2013-01-20 19:12:00,
2013-01-20 12:22:00,23.0,12.0,30.32,South,179,2.0,7.0,62,0.00,,,0.00,,2013-01-20 19:22:00,
2013-01-20 12:32:00,24.0,11.0,30.32,ENE,67,2.0,7.0,57,0.00,,,0.00,,2013-01-20 19:32:00,
2013-01-20 12:42:00,24.0,11.0,30.32,ENE,67,2.0,7.0,57,0.00,,,0.00,,2013-01-20 19:42:00,
2013-01-20 12:52:00,22.0,12.0,30.31,South,172,4.0,7.0,64,0.00,,,0.00,,2013-01-20 19:52:00,
2013-01-20 13:02:00,24.0,12.0,30.30,South,181,5.0,7.0,60,0.00,,,0.00,,2013-01-20 20:02:00,
2013-01-20 13:12:00,24.0,12.0,30.30,South,181,5.0,7.0,60,0.00,,,0.00,,2013-01-20 20:12:00,
2013-01-20 13:22:00,23.0,12.0,30.30,South,171,5.0,10.0,63,0.00,,,0.00,,2013-01-20 20:22:00,
2013-01-20 13:32:00,21.0,11.0,30.30,SE,143,4.0,8.0,65,0.00,,,0.00,,2013-01-20 20:32:00,
2013-01-20 13:42:00,21.0,11.0,30.30,SE,143,4.0,8.0,65,0.00,,,0.00,,2013-01-20 20:42:00,
2013-01-20 13:53:00,22.0,12.0,30.30,SE,135,5.0,8.0,65,0.00,,,0.00,,2013-01-20 20:53:00,
2013-01-20 14:02:00,23.0,13.0,30.29,SE,137,5.0,7.0,64,0.00,,,0.00,,2013-01-20 21:02:00,
2013-01-20 14:12:00,23.0,13.0,30.29,SE,137,5.0,7.0,64,0.00,,,0.00,,2013-01-20 21:12:00,
2013-01-20 14:22:00,23.0,13.0,30.29,SSE,155,4.0,6.0,64,0.00,,,0.00,,2013-01-20 21:22:00,
2013-01-20 14:32:00,24.0,14.0,30.29,SSE,152,3.0,4.0,66,0.00,,,0.00,,2013-01-20 21:32:00,
2013-01-20 14:42:00,24.0,14.0,30.29,SSE,152,3.0,4.0,66,0.00,,,0.00,,2013-01-20 21:42:00,
2013-01-20 14:53:00,24.0,14.0,30.29,SSE,151,4.0,6.0,65,0.00,,,0.00,,2013-01-20 21:53:00,
2013-01-20 15:02:00,25.0,14.0,30.28,SSE,151,3.0,4.0,62,0.00,,,0.00,,2013-01-20 22:02:00,
2013-01-20 15:12:00,25.0,14.0,30.28,SSE,151,3.0,4.0,62,0.00,,,0.00,,2013-01-20 22:12:00,
2013-01-20 15:22:00,25.0,14.0,30.29,SE,133,4.0,6.0,62,0.00,,,0.00,,2013-01-20 22:22:00,
2013-01-20 15:32:00,24.0,13.0,30.29,SE,145,4.0,6.0,62,0.00,,,0.00,,2013-01-20 22:32:00,
2013-01-20 15:42:00,24.0,13.0,30.29,SE,145,4.0,6.0,62,0.00,,,0.00,,2013-01-20 22:42:00,
2013-01-20 15:53:00,24.0,13.0,30.29,SSE,149,3.0,5.0,63,0.00,,,0.00,,2013-01-20 22:53:00,
2013-01-20 16:02:00,24.0,13.0,30.28,SSE,152,3.0,5.0,61,0.00,,,0.00,,2013-01-20 23:02:00,
2013-01-20 16:12:00,24.0,13.0,30.28,SSE,152,3.0,5.0,61,0.00,,,0.00,,2013-01-20 23:12:00,
2013-01-20 16:22:00,24.0,13.0,30.28,SSE,149,3.0,5.0,61,0.00,,,0.00,,2013-01-20 23:22:00,
2013-01-20 16:32:00,24.0,12.0,30.29,SSE,149,2.0,4.0,59,0.00,,,0.00,,2013-01-20 23:32:00,
2013-01-20 16:42:00,24.0,12.0,30.29,SSE,149,2.0,4.0,59,0.00,,,0.00,,2013-01-20 23:42:00,
2013-01-20 16:53:00,24.0,13.0,30.29,SSE,149,2.0,4.0,62,0.00,,,0.00,,2013-01-20 23:53:00,
2013-01-20 17:02:00,22.0,12.0,30.29,SSE,149,3.0,4.0,64,0.00,,,0.00,,2013-01-21 00:02:00,
2013-01-20 17:12:00,22.0,12.0,30.29,SSE,149,3.0,4.0,64,0.00,,,0.00,,2013-01-21 00:12:00,
2013-01-20 17:22:00,19.0,10.0,30.29,SE,146,5.0,6.0,67,0.00,,,0.00,,2013-01-21 00:22:00,
2013-01-20 17:32:00,20.0,11.0,30.29,SSE,157,3.0,5.0,69,0.00,,,0.00,,2013-01-21 00:32:00,
2013-01-20 17:42:00,20.0,11.0,30.29,SSE,157,3.0,5.0,69,0.00,,,0.00,,2013-01-21 00:42:00,
2013-01-20 17:53:00,21.0,11.0,30.29,SSE,157,2.0,4.0,66,0.00,,,0.00,,2013-01-21 00:53:00,
2013-01-20 18:02:00,21.0,12.0,30.29,SSE,157,2.0,4.0,68,0.00,,,0.00,,2013-01-21 01:02:00,
2013-01-20 18:12:00,21.0,12.0,30.29,SSE,157,2.0,4.0,68,0.00,,,0.00,,2013-01-21 01:12:00,
2013-01-20 18:22:00,20.0,10.0,30.29,SSE,157,3.0,5.0,65,0.00,,,0.00,,2013-01-21 01:22:00,
2013-01-20 18:32:00,21.0,10.0,30.29,SSE,157,3.0,4.0,63,0.00,,,0.00,,2013-01-21 01:32:00,
2013-01-20 18:42:00,21.0,10.0,30.29,SSE,157,3.0,4.0,63,0.00,,,0.00,,2013-01-21 01:42:00,
2013-01-20 18:53:00,22.0,10.0,30.29,SSE,157,2.0,4.0,59,0.00,,,0.00,,2013-01-21 01:53:00,
2013-01-20 19:02:00,24.0,10.0,30.29,SSE,157,3.0,4.0,54,0.00,,,0.00,,2013-01-21 02:02:00,
2013-01-20 19:22:00,25.0,8.0,30.29,SSE,157,2.0,4.0,48,0.00,,,0.00,,2013-01-21 02:22:00,
2013-01-20 19:32:00,24.0,9.0,30.29,SSE,156,5.0,7.0,53,0.00,,,0.00,,2013-01-21 02:32:00,
2013-01-20 19:53:00,21.0,9.0,30.29,SE,126,4.0,5.0,58,0.00,,,0.00,,2013-01-21 02:53:00,
2013-01-20 20:02:00,20.0,9.0,30.29,SSE,152,3.0,6.0,62,0.00,,,0.00,,2013-01-21 03:02:00,
2013-01-20 20:11:00,20.0,9.0,30.29,SSE,152,3.0,6.0,62,0.00,,,0.00,,2013-01-21 03:11:00,
2013-01-20 20:22:00,20.0,9.0,30.29,SSE,152,3.0,6.0,63,0.00,,,0.00,,2013-01-21 03:22:00,
2013-01-20 20:32:00,21.0,9.0,30.29,SSE,152,3.0,5.0,60,0.00,,,0.00,,2013-01-21 03:32:00,
2013-01-20 20:53:00,21.0,9.0,30.30,SSE,152,1.0,4.0,59,0.00,,,0.00,,2013-01-21 03:53:00,
2013-01-20 21:02:00,23.0,8.0,30.30,SSE,152,2.0,3.0,53,0.00,,,0.00,,2013-01-21 04:02:00,
2013-01-20 21:22:00,23.0,8.0,30.30,SSE,152,3.0,4.0,53,0.00,,,0.00,,2013-01-21 04:22:00,
2013-01-20 21:32:00,23.0,8.0,30.29,SSE,152,1.0,2.0,53,0.00,,,0.00,,2013-01-21 04:32:00,
2013-01-20 21:53:00,22.0,9.0,30.29,SSE,152,3.0,5.0,56,0.00,,,0.00,,2013-01-21 04:53:00,
2013-01-20 22:03:00,21.0,9.0,30.29,SSE,153,3.0,6.0,59,0.00,,,0.00,,2013-01-21 05:03:00,
2013-01-20 22:32:00,22.0,8.0,30.30,SSE,151,1.0,3.0,55,0.00,,,0.00,,2013-01-21 05:32:00,
2013-01-20 22:53:00,23.0,8.0,30.30,SSE,151,0.0,2.0,53,0.00,,,0.00,,2013-01-21 05:53:00,
2013-01-20 23:02:00,24.0,9.0,30.30,SSE,151,2.0,3.0,51,0.00,,,0.00,,2013-01-21 06:02:00,
2013-01-20 23:22:00,19.0,7.0,30.30,SE,131,5.0,6.0,60,0.00,,,0.00,,2013-01-21 06:22:00,
2013-01-20 23:32:00,15.0,7.0,30.31,SE,127,5.0,6.0,70,0.00,,,0.00,,2013-01-21 06:32:00,
2013-01-20 23:42:00,15.0,7.0,30.31,SE,127,5.0,6.0,70,0.00,,,0.00,,2013-01-21 06:42:00,
2013-01-20 23:53:00,16.0,9.0,30.30,SE,128,4.0,5.0,72,0.00,,,0.00,,2013-01-21 06:53:00,